Location: Hylo
(54.6785°N, 112.2142°W)
Time: 21:35:22
(UTC+00:00)

QB50P2 - Visible Passes

Search period start: 05 November 2024 00:00
Search period end: 15 November 2024 00:00
Orbit: 552 x 566 km, 98.0° (Epoch: 05 November)

Date Brightness Start Highest point End Pass type
(mag) Time Alt. Az. Time Alt. Az. Time Alt. Az.
05 Nov ? 11:32:55 10° N 11:33:15 12° N 11:33:15 12° N visible
06 Nov ? 11:31:23 10° N 11:31:35 11° N 11:31:35 11° N visible
07 Nov ? 11:29:48 10° N 11:29:53 11° N 11:29:53 11° N visible
